Wind_Speed
88 81 86 86 95 97 101 102 108 113 112 100 99 87 82 91 81 75 77 77 78 73 68 68 68 64 59 56 47 48 46 43 43 39 39 36 34 32 31 32 30 26 25 25
76 80 81 81 88 95 101 103 107 106 103 98 89 76 99 81 87 80 76 79 82 79 79 68 66 66 65 59 54 53 54 54 53 49 47 45 42 42 37 38 35 35 29 27
72 81 80 82 88 97 101 99 103 112 105 99 90 84 72 103 93 80 78 77 80 85 84 79 73 71 69 65 65 59 58 62 61 54 57 52 48 47 47 46 44 44 39 42
65 67 75 79 82 87 94 99 113 110 102 94 95 98 96 75 101 98 86 82 83 84 84 85 85 83 77 67 63 64 64 66 68 67 65 60 57 57 53 54 53 51 50 49
62 61 60 77 84 89 95 101 107 102 99 96 99 102 105 102 62 105 104 94 87 84 87 87 88 86 82 81 80 76 70 69 67 72 71 71 67 62 59 57 57 59 59 55
68 66 63 62 74 83 88 91 96 94 106 104 107 111 100 105 108 89 106 112 103 98 93 88 89 91 89 87 90 85 76 74 76 70 71 71 69 67 64 66 69 68 68 66
68 70 70 71 69 70 82 86 85 101 110 108 109 113 111 98 103 103 101 113 115 112 106 104 100 95 90 92 93 93 92 87 84 82 81 75 76 75 76 77 79 81 80 77
77 82 80 84 78 72 77 84 90 96 103 109 112 114 112 115 113 111 106 91 118 119 119 115 110 108 106 103 99 97 95 94 94 90 88 89 89 83 84 85 86 83 85 85
81 76 74 84 80 87 81 86 88 97 100 106 111 114 111 110 113 115 114 117 117 109 119 123 119 120 119 116 110 106 103 101 100 99 96 92 93 92 88 87 80 81 86 89
78 80 82 78 74 82 89 88 86 91 93 100 106 109 110 111 111 111 115 117 116 116 116 116 121 124 126 126 124 121 116 110 108 107 105 104 108 107 106 107 108 104 102 98
59 72 84 87 86 86 86 86 85 78 82 91 97 103 108 110 113 113 112 113 115 118 119 119 119 121 121 123 127 126 124 122 121 119 117 116 116 116 115 111 109 106 107 102
31 45 58 69 81 89 88 91 83 78 74 77 87 90 98 107 111 114 114 113 113 114 115 115 117 119 121 121 123 124 125 126 125 123 120 118 116 114 113 116 112 113 108 106
12 20 30 41 52 65 75 81 85 82 79 78 79 82 88 92 100 109 113 116 117 115 114 115 116 117 118 119 121 122 122 124 125 124 125 123 121 120 119 119 117 116 113 112
6 8 11 17 27 40 52 63 69 72 77 79 80 81 82 86 89 93 100 104 110 115 117 119 120 121 121 121 121 121 122 122 123 123 123 123 124 123 123 123 121 120 120 120
15 15 14 13 14 17 23 34 48 61 69 76 79 81 82 84 86 89 92 95 98 103 109 114 119 122 123 124 124 125 126 125 126 125 124 124 123 123 124 123 122 120 122 120
19 19 20 21 22 22 23 25 29 35 43 55 67 77 85 89 89 90 93 97 100 101 102 106 110 114 117 121 123 124 127 128 130 129 128 129 128 127 127 127 126 124 124 123
19 22 23 23 26 29 30 33 37 37 40 45 50 57 62 68 76 84 91 96 100 102 104 107 110 114 114 116 118 120 122 125 127 128 128 130 131 132 132 131 132 131 129 128
21 22 25 26 31 36 37 41 43 44 45 49 54 59 65 69 72 75 79 83 88 92 97 102 105 107 111 114 118 120 121 121 124 125 125 126 127 128 128 129 129 130 130 130
25 29 34 37 40 42 46 48 49 49 50 52 55 56 60 66 71 75 78 81 84 87 89 91 93 95 98 102 107 114 116 117 118 123 122 122 123 124 124 124 125 125 124 124
32 34 38 43 47 50 52 55 55 55 55 56 57 57 60 63 66 69 74 78 82 83 85 86 89 90 93 95 96 99 102 102 103 106 113 113 114 117 120 121 122 123 123 122
36 37 39 42 47 48 46 44 43 44 47 49 51 51 52 54 57 61 65 68 72 73 73 74 77 82 85 87 90 93 97 98 97 95 99 102 99 101 103 104 106 107 109 110
31 32 33 38 41 42 34 32 33 34 35 37 40 43 45 49 52 54 57 59 62 64 67 69 71 75 77 80 82 84 88 90 88 88 88 90 94 96 96 96 96 97 99 99
26 28 33 34 36 39 34 28 27 28 30 32 34 36 39 42 43 48 49 49 51 54 58 60 61 65 67 68 71 73 78 79 78 75 77 79 83 87 88 87 86 86 86 88
26 31 37 36 36 39 40 41 38 34 33 35 36 38 42 43 40 42 43 44 45 47 51 53 53 54 58 57 59 61 63 65 65 66 67 70 71 74 77 78 77 78 79 78
28 31 36 38 39 38 39 42 42 40 39 37 37 37 39 41 38 38 37 38 40 42 41 46 47 46 47 49 48 47 50 53 54 57 59 60 63 65 66 68 69 69 69 67
28 32 33 38 39 40 41 42 45 46 44 43 40 40 38 38 37 38 37 35 38 39 37 37 38 38 40 41 42 41 43 46 48 49 52 53 55 56 57 58 61 62 61 60
33 36 38 40 43 43 43 45 48 51 50 48 46 42 41 39 39 36 34 33 34 34 32 32 32 31 30 32 33 35 37 38 40 42 42 45 48 49 51 52 54 54 54 53
Wind_Direction
214 212 214 212 214 212 213 215 216 219 219 217 216 216 220 215 222 226 227 232 235 238 240 243 239 241 244 244 240 238 237 237 248 249 252 246 249 261 265 265 275 279 279 281
219 216 217 216 215 216 216 216 219 220 220 217 217 239 232 214 218 225 224 226 232 235 237 242 238 236 239 241 240 240 240 240 244 245 248 250 248 247 253 259 259 271 274 274
218 223 220 219 218 215 217 217 221 222 220 218 212 212 233 226 220 219 224 224 227 230 236 236 239 240 240 244 243 240 242 242 243 244 244 242 246 250 252 255 260 268 267 269
214 218 221 222 223 220 220 219 223 224 220 219 220 221 221 231 226 222 217 217 221 227 232 234 236 237 240 239 240 243 241 243 242 244 247 244 249 258 254 257 260 261 264 270
214 221 221 221 219 222 220 220 223 224 224 219 221 225 224 225 224 224 223 220 221 225 230 232 234 237 240 241 242 243 242 243 242 246 249 252 260 255 253 255 256 257 266 271
206 218 220 223 225 225 222 222 225 227 226 221 220 220 225 228 232 232 226 226 226 224 224 227 233 235 239 239 238 240 240 238 238 243 247 252 254 248 249 252 256 258 263 268
210 217 225 225 226 227 222 221 225 225 226 222 224 225 222 226 229 231 233 231 230 230 231 231 231 230 235 237 238 240 240 240 242 245 240 242 248 249 248 251 259 263 266 268
214 216 221 227 230 232 228 219 224 225 228 223 224 227 226 227 230 231 230 231 229 232 233 234 235 237 238 241 237 236 234 243 247 245 242 239 242 249 257 259 262 262 266 269
217 218 223 230 227 226 230 225 224 229 229 230 227 228 228 230 231 233 235 238 237 237 237 237 239 239 239 242 243 245 242 242 241 239 239 240 241 244 248 252 253 255 261 266
220 225 226 229 226 227 229 233 228 229 229 231 233 232 231 231 233 235 237 238 240 241 241 241 241 243 243 243 243 246 246 245 246 246 247 248 249 254 258 260 263 264 263 263
225 224 226 229 234 235 236 237 238 235 233 233 234 235 235 235 235 236 237 239 241 242 242 243 244 245 246 246 246 247 249 251 252 253 254 254 255 257 261 263 263 263 264 264
228 227 229 231 232 235 238 241 241 237 237 236 236 237 237 237 239 240 240 240 241 243 245 246 247 247 248 249 250 249 249 250 251 253 254 256 257 258 260 261 261 263 263 262
238 235 231 230 231 234 237 240 242 242 241 242 243 242 242 242 242 241 243 245 243 243 244 246 247 248 249 250 251 252 253 253 253 253 254 255 256 257 257 259 260 260 261 262
250 218 231 239 240 238 238 239 242 243 243 242 243 245 244 243 244 246 246 247 247 248 248 248 247 248 249 250 251 251 252 253 254 255 256 256 257 256 257 259 258 260 261 261
267 270 272 269 257 242 241 244 245 245 245 246 246 247 248 248 248 248 248 248 249 250 250 250 250 250 250 251 252 253 253 254 254 255 256 257 257 259 260 259 260 261 261 261
271 260 260 265 265 262 249 247 245 244 244 246 248 250 251 251 251 251 251 251 249 249 250 251 251 252 252 253 253 254 255 255 256 257 257 258 258 258 259 260 261 260 261 263
270 266 266 268 273 272 268 268 264 251 250 250 248 246 248 250 251 252 253 251 251 252 251 252 251 252 252 253 255 255 256 256 256 256 257 258 259 259 259 260 261 261 261 261
283 286 285 284 284 285 282 278 274 267 260 256 253 252 250 249 251 252 252 253 253 253 253 254 253 253 254 255 256 255 255 255 256 257 257 258 259 259 259 259 260 261 261 261
297 299 299 297 293 288 285 281 277 275 271 268 265 263 260 258 254 252 251 253 255 255 256 256 256 256 256 255 255 257 256 256 255 257 258 258 258 260 260 261 261 261 261 261
305 300 294 291 289 288 287 283 279 276 275 273 271 269 266 263 260 258 255 254 255 255 256 258 258 257 257 258 257 257 258 258 257 257 260 259 259 260 260 261 262 262 262 262
303 300 300 303 302 304 300 290 283 280 278 277 277 276 271 267 265 263 261 260 261 261 261 261 260 259 258 259 259 260 260 260 259 258 259 262 261 260 261 261 261 262 262 263
308 308 313 317 325 327 318 305 293 287 287 286 282 280 278 275 275 275 272 269 267 266 264 262 260 259 258 257 257 257 259 259 259 259 258 258 261 262 261 262 262 262 263 262
325 326 325 329 335 346 342 327 321 315 307 300 296 294 293 292 293 287 281 276 273 271 269 268 266 265 264 261 260 259 259 260 262 260 259 257 258 261 263 262 262 264 264 264
330 334 337 336 341 348 352 353 347 337 330 322 313 305 301 300 301 294 287 283 281 278 277 277 273 269 267 266 263 261 261 261 261 260 258 258 257 257 259 262 262 262 262 264
348 343 341 341 342 346 350 351 348 347 342 330 323 315 309 310 311 303 294 291 289 286 282 277 276 274 271 269 267 264 262 261 259 257 257 256 255 256 257 258 260 261 262 263
347 346 340 344 344 344 348 348 346 342 343 341 332 326 319 315 316 312 306 304 302 298 291 284 280 275 271 270 270 267 262 260 259 257 256 256 256 256 257 258 259 262 264 264
350 347 347 348 343 342 344 346 344 345 343 343 339 333 330 324 321 319 313 309 306 303 299 292 287 282 275 270 267 265 262 259 259 261 260 258 256 256 256 257 259 261 263 265
Height
10733 10759 10767 10789 10802 10812 10820 10832 10837 10833 10845 10877 10884 10886 10896 10912 10919 10927 10934 10943 10950 10956 10958 10961 10967 10971 10977 10983 10989 10993 10997 11001 11001 11005 11007 11009 11009 11010 11011 11012 11016 11017 11017 11019
10745 10752 10761 10777 10787 10798 10804 10812 10812 10826 10844 10861 10882 10910 10902 10902 10906 10913 10920 10927 10934 10942 10944 10949 10955 10960 10965 10971 10977 10981 10984 10989 10993 10996 10997 11000 11001 11003 11004 11006 11008 11011 11014 11015
10728 10729 10748 10760 10760 10769 10783 10803 10801 10789 10823 10845 10878 10860 10857 10879 10894 10901 10907 10914 10921 10926 10930 10939 10942 10947 10950 10956 10961 10966 10971 10975 10978 10982 10984 10987 10991 10993 10995 10997 11001 11002 11005 11006
10714 10720 10732 10744 10757 10764 10777 10788 10758 10778 10822 10846 10850 10850 10851 10854 10877 10885 10890 10898 10906 10911 10916 10920 10925 10931 10936 10943 10946 10950 10955 10960 10963 10966 10969 10974 10978 10980 10983 10985 10988 10990 10992 10996
10704 10709 10723 10723 10728 10736 10749 10755 10757 10789 10808 10826 10825 10822 10827 10841 10848 10861 10874 10878 10884 10891 10898 10903 10908 10914 10921 10927 10932 10933 10937 10941 10946 10949 10953 10957 10961 10964 10967 10970 10973 10975 10977 10982
10695 10688 10701 10708 10716 10724 10740 10748 10759 10785 10781 10795 10795 10794 10812 10824 10834 10842 10853 10856 10864 10872 10879 10885 10891 10896 10902 10906 10911 10915 10919 10923 10928 10932 10935 10936 10941 10946 10950 10953 10956 10959 10962 10965
10683 10683 10691 10696 10702 10706 10716 10738 10733 10742 10748 10770 10780 10784 10800 10806 10814 10820 10828 10834 10847 10853 10859 10866 10871 10877 10884 10888 10891 10896 10900 10905 10908 10913 10919 10922 10923 10926 10929 10934 10937 10938 10942 10947
10657 10663 10674 10679 10687 10695 10699 10707 10719 10716 10723 10751 10756 10761 10779 10790 10799 10804 10809 10815 10825 10830 10837 10844 10850 10856 10862 10866 10871 10875 10879 10885 10889 10894 10897 10901 10906 10909 10912 10913 10916 10918 10921 10925
10647 10657 10659 10660 10670 10675 10678 10689 10697 10702 10717 10729 10734 10744 10762 10771 10780 10786 10790 10795 10802 10808 10815 10821 10827 10834 10840 10845 10849 10853 10858 10863 10866 10870 10875 10878 10881 10885 10890 10895 10896 10899 10900 10906
10639 10642 10650 10654 10655 10662 10668 10672 10681 10691 10701 10711 10715 10726 10740 10750 10755 10762 10767 10773 10777 10784 10790 10796 10803 10808 10814 10819 10826 10830 10834 10839 10844 10848 10852 10857 10859 10863 10865 10867 10873 10876 10878 10884
10625 10634 10634 10639 10644 10650 10652 10659 10668 10678 10687 10693 10701 10704 10715 10725 10731 10738 10744 10750 10754 10759 10766 10772 10778 10782 10787 10792 10799 10805 10810 10814 10818 10823 10826 10829 10832 10840 10841 10840 10845 10849 10853 10857
10614 10617 10620 10627 10632 10635 10641 10646 10654 10663 10670 10677 10681 10687 10693 10700 10707 10712 10717 10725 10729 10735 10740 10747 10753 10756 10760 10765 10769 10773 10780 10785 10789 10795 10799 10803 10805 10810 10813 10813 10821 10821 10827 10830
10607 10608 10609 10612 10616 10621 10627 10633 10638 10646 10653 10658 10664 10669 10672 10679 10683 10688 10692 10696 10703 10709 10715 10717 10721 10725 10729 10734 10739 10742 10748 10754 10759 10765 10768 10774 10778 10780 10786 10785 10792 10795 10799 10800
10606 10605 10605 10606 10608 10611 10615 10618 10622 10629 10633 10639 10642 10646 10650 10656 10659 10663 10667 10670 10675 10681 10686 10689 10692 10696 10701 10704 10709 10714 10718 10721 10726 10731 10737 10742 10743 10750 10754 10755 10764 10766 10767 10769
10602 10602 10602 10603 10604 10605 10606 10608 10611 10615 10619 10620 10624 10627 10630 10633 10636 10638 10641 10644 10648 10650 10654 10658 10658 10664 10669 10672 10676 10680 10684 10688 10690 10697 10701 10704 10712 10715 10717 10726 10728 10735 10731 10739
10596 10596 10596 10597 10597 10598 10598 10599 10599 10600 10601 10601 10603 10606 10607 10608 10609 10612 10613 10613 10615 10621 10623 10626 10629 10630 10638 10639 10643 10648 10651 10654 10657 10663 10669 10670 10677 10681 10684 10688 10693 10702 10701 10703
10590 10590 10590 10590 10589 10588 10588 10588 10585 10587 10586 10584 10584 10583 10582 10582 10582 10582 10584 10586 10588 10589 10592 10595 10599 10601 10607 10608 10609 10614 10618 10619 10621 10627 10632 10635 10641 10643 10648 10653 10655 10661 10666 10669
10583 10582 10581 10581 10579 10575 10574 10571 10569 10568 10568 10566 10565 10562 10560 10560 10559 10559 10559 10559 10558 10559 10557 10560 10567 10573 10573 10576 10573 10577 10582 10586 10585 10589 10596 10598 10601 10605 10610 10615 10618 10623 10631 10631
10575 10573 10569 10566 10563 10560 10556 10552 10550 10548 10546 10544 10541 10541 10539 10536 10536 10536 10533 10532 10531 10531 10530 10533 10536 10538 10540 10541 10542 10538 10544 10551 10556 10549 10557 10565 10566 10568 10572 10576 10580 10585 10590 10596
10564 10561 10558 10553 10547 10542 10537 10531 10528 10525 10522 10519 10516 10515 10512 10509 10508 10507 10506 10504 10503 10504 10504 10506 10505 10507 10506 10507 10510 10510 10508 10514 10522 10526 10516 10526 10534 10534 10537 10542 10545 10548 10552 10557
10557 10551 10546 10540 10531 10524 10515 10508 10505 10503 10501 10498 10494 10491 10488 10485 10483 10481 10480 10480 10479 10479 10481 10478 10476 10474 10478 10478 10478 10479 10476 10479 10486 10497 10495 10490 10498 10502 10503 10507 10511 10513 10517 10520
10546 10541 10535 10529 10520 10510 10500 10494 10491 10487 10483 10480 10477 10474 10471 10467 10464 10461 10457 10455 10452 10451 10447 10448 10449 10448 10448 10448 10449 10451 10447 10447 10455 10461 10467 10469 10464 10465 10470 10475 10480 10483 10484 10489
10539 10534 10530 10523 10514 10504 10494 10487 10482 10477 10473 10468 10464 10460 10455 10450 10448 10441 10436 10434 10431 10427 10424 10423 10425 10422 10420 10423 10424 10424 10422 10424 10426 10433 10437 10441 10443 10440 10441 10445 10450 10454 10456 10455
10533 10528 10522 10515 10506 10498 10489 10482 10474 10469 10464 10458 10452 10447 10441 10436 10432 10425 10418 10414 10412 10408 10405 10402 10401 10400 10396 10398 10398 10400 10400 10402 10404 10407 10412 10414 10417 10419 10419 10420 10424 10427 10429 10432
10526 10522 10517 10509 10502 10494 10487 10480 10473 10465 10458 10451 10444 10438 10430 10422 10418 10411 10405 10400 10395 10391 10390 10383 10381 10381 10378 10376 10375 10378 10379 10379 10381 10383 10386 10390 10392 10394 10397 10399 10400 10404 10407 10410
10521 10516 10510 10504 10497 10490 10483 10476 10469 10461 10453 10445 10437 10428 10420 10413 10406 10398 10391 10386 10381 10376 10372 10368 10365 10364 10362 10359 10359 10359 10360 10361 10361 10364 10367 10369 10371 10374 10378 10381 10382 10383 10386 10387
10514 10510 10505 10499 10492 10485 10478 10471 10463 10454 10445 10437 10429 10420 10411 10403 10395 10389 10381 10376 10371 10364 10359 10355 10352 10350 10348 10346 10345 10343 10343 10345 10346 10348 10350 10352 10354 10357 10360 10363 10365 10367 10368 10371